Location: Baix
(44.7118°N, 4.7648°E)
Time: 11:16:57
(UTC+00:00)

ISS - Visible Passes

Search period start: 28 October 2020 00:00
Search period end: 07 November 2020 00:00
Orbit: 417 x 420 km, 51.6° (Epoch: 28 October)

Date Brightness Start Highest point End Pass type
(mag) Time Alt. Az. Time Alt. Az. Time Alt. Az.
28 Oct -2.8 04:09:06 46° NE 04:09:06 46° NE 04:11:36 10° ENE visible
29 Oct -0.4 03:23:27 13° ENE 03:23:27 13° ENE 03:23:49 10° ENE visible
29 Oct -2.7 04:56:24 25° NW 04:57:28 31° NNW 05:00:32 10° NE visible
30 Oct -2.2 04:10:41 29° NNE 04:10:41 29° NNE 04:12:46 10° NE visible
30 Oct -2.2 05:44:09 10° WNW 05:46:58 24° N 05:49:47 10° ENE visible
31 Oct -0.3 03:24:55 11° NE 03:24:55 11° NE 03:25:02 10° NE visible
31 Oct -2.2 04:57:52 20° NW 04:59:00 25° N 05:01:52 10° NE visible
01 Nov -1.8 04:12:04 23° NNE 04:12:04 23° NNE 04:14:00 10° NE visible
01 Nov -2.3 05:45:35 10° NW 05:48:31 27° N 05:51:28 10° ENE visible
02 Nov -2.1 04:59:12 19° NNW 05:00:34 25° N 05:03:26 10° ENE visible
03 Nov -1.7 04:13:22 22° NNE 04:13:22 22° NNE 04:15:26 10° ENE visible
03 Nov -2.8 05:46:47 10° NW 05:49:59 40° NNE 05:53:11 10° E visible
04 Nov -2.4 05:00:30 21° NNW 05:02:05 32° NNE 05:05:09 10° E visible
05 Nov -1.9 04:14:42 26° NNE 04:14:42 26° NNE 04:17:05 10° ENE visible
05 Nov -3.7 05:47:55 10° WNW 05:51:17 80° NNE 05:54:39 10° ESE visible
06 Nov -0.2 03:28:56 10° ENE 03:28:56 10° ENE 03:29:01 10° ENE visible
06 Nov -3.3 05:01:53 27° NW 05:03:27 54° NNE 05:06:45 10° ESE visible
